Bellefontaine, OH

11:15 AM EST on December 05, 2016 (GMT -0500)
Bellefontaine

Weather History for KEDJ - March, 2013

Change the Weather History Date:

Thursday, March 14, 2013

  Actual Average (KDAY) Record (KDAY)
Temperature  
Mean Temperature 29 °F 40 °F  
Max Temperature 37 °F 49 °F 78 °F (1990)
Min Temperature 21 °F 31 °F 5 °F (1993)
Degree Days  
Heating Degree Days 36 25  
Month to date heating degree days 389  
Since 1 July heating degree days 4664  
Cooling Degree Days 0 0  
Month to date cooling degree days 0  
Year to date cooling degree days 0  
Moisture  
Dew Point 21 °F    
Average Humidity 71    
Maximum Humidity 86    
Minimum Humidity 56    
Precipitation  
Precipitation 0.00 in 0.10 in 1.84 in (1922)
Month to date precipitation 1.34  
Year to date precipitation 6.29  
Snow  
Snow 0.00 in 0.10 in 4.20 in (1975)
Month to date snowfall 2.0  
Since 1 July snowfall 21.3  
Snow Depth -    
Sea Level Pressure  
Sea Level Pressure 30.20 in    
Wind  
Wind Speed 7 mph (WSW)    
Max Wind Speed 14 mph    
Max Gust Speed 16 mph    
Visibility 10 miles    
Events      
T = Trace of Precipitation, MM = Missing Value Source: NWS Daily Summary

Daily Weather History Graph

Daily Weather History Graph

Search for Another Location

Airport or City:

Trip Planner

Search our weather history database for the weather conditions in past years. The results will help you decide how hot, cold, wet, or windy it might be!

Date:

Astronomy

Mar. 14, 2013 Rise Set
Actual Time 7:48 AM EDT 7:41 PM EDT
Civil Twilight 7:20 AM EDT 8:08 PM EDT
Nautical Twilight 6:49 AM EDT 8:40 PM EDT
Astronomical Twilight 6:17 AM EDT 9:12 PM EDT
Moon 9:00 AM EDT (3/14) 10:57 PM EDT (3/14)
Length of Visible Light 12h 47m
Length of Day
11h 53m
Waxing Crescent, 9% of the Moon is Illuminated
Mar 14
Waxing Crescent
Mar 19
First Quarter
Mar 27
Full
Apr 3
Last Quarter
Apr 10
New

Hourly Weather History & Observations

Time (EDT) Temp. Windchill Dew Point Humidity Pressure Visibility Wind Dir Wind Speed Gust Speed Precip Events Conditions
12:10 AM 24.8 °F 15.3 °F 17.6 °F 74% 30.23 in 10.0 mi WNW 9.2 mph - 0.00 in   Clear
12:30 AM 24.8 °F 16.1 °F 17.6 °F 74% 30.23 in 10.0 mi WNW 8.1 mph - 0.00 in   Clear
12:50 AM 24.8 °F 16.9 °F 17.6 °F 74% 30.23 in 10.0 mi WNW 6.9 mph - 0.00 in   Clear
1:10 AM 23.0 °F 15.8 °F 17.6 °F 80% 30.23 in 10.0 mi WNW 5.8 mph - 0.00 in   Clear
1:30 AM 23.0 °F 15.8 °F 17.6 °F 80% 30.23 in 10.0 mi West 5.8 mph - 0.00 in   Clear
1:50 AM 23.0 °F 15.8 °F 17.6 °F 80% 30.23 in 10.0 mi WNW 5.8 mph - 0.00 in   Clear
2:10 AM 23.0 °F 15.8 °F 17.6 °F 80% 30.23 in 10.0 mi WNW 5.8 mph - 0.00 in   Clear
2:30 AM 23.0 °F 14.7 °F 17.6 °F 80% 30.23 in 10.0 mi WNW 6.9 mph - 0.00 in   Clear
3:10 AM 23.0 °F 15.8 °F 17.6 °F 80% 30.23 in 10.0 mi West 5.8 mph - 0.00 in   Clear
3:30 AM 23.0 °F 15.8 °F 17.6 °F 80% 30.24 in 10.0 mi West 5.8 mph - 0.00 in   Clear
3:50 AM 23.0 °F 17.0 °F 17.6 °F 80% 30.23 in 10.0 mi West 4.6 mph - 0.00 in   Clear
4:10 AM 21.2 °F 12.6 °F 17.6 °F 86% 30.24 in 10.0 mi West 6.9 mph - 0.00 in   Clear
4:30 AM 21.2 °F 12.6 °F 17.6 °F 86% 30.24 in 10.0 mi West 6.9 mph - 0.00 in   Clear
4:50 AM 23.0 °F 14.7 °F 17.6 °F 80% 30.23 in 10.0 mi West 6.9 mph - 0.00 in   Clear
5:10 AM 23.0 °F 14.7 °F 17.6 °F 80% 30.23 in 10.0 mi West 6.9 mph - 0.00 in   Clear
5:30 AM 21.2 °F 12.6 °F 17.6 °F 86% 30.24 in 10.0 mi West 6.9 mph - 0.00 in   Clear
5:50 AM 21.2 °F 12.6 °F 17.6 °F 86% 30.24 in 10.0 mi WSW 6.9 mph - 0.00 in   Clear
6:10 AM 21.2 °F 12.6 °F 17.6 °F 86% 30.24 in 10.0 mi WSW 6.9 mph - 0.00 in   Clear
6:30 AM 23.0 °F 14.7 °F 17.6 °F 80% 30.23 in 10.0 mi WSW 6.9 mph - 0.00 in   Clear
6:50 AM 23.0 °F 15.8 °F 17.6 °F 80% 30.24 in 10.0 mi SW 5.8 mph - 0.00 in   Clear
7:10 AM 23.0 °F 15.8 °F 17.6 °F 80% 30.24 in 10.0 mi WSW 5.8 mph - 0.00 in   Clear
7:30 AM 21.2 °F 13.6 °F 17.6 °F 86% 30.23 in 10.0 mi SW 5.8 mph - 0.00 in   Clear
7:50 AM 23.0 °F 18.4 °F 17.6 °F 80% 30.24 in 10.0 mi WSW 3.5 mph - 0.00 in   Clear
8:10 AM 21.2 °F 13.6 °F 17.6 °F 86% 30.25 in 10.0 mi WSW 5.8 mph - 0.00 in   Clear
8:30 AM 23.0 °F 14.7 °F 17.6 °F 80% 30.25 in 10.0 mi WSW 6.9 mph - 0.00 in   Clear
8:50 AM 23.0 °F 15.8 °F 17.6 °F 80% 30.25 in 10.0 mi WSW 5.8 mph - 0.00 in   Clear
9:10 AM 24.8 °F 16.1 °F 19.4 °F 80% 30.25 in 10.0 mi WSW 8.1 mph - 0.00 in   Clear
9:30 AM 26.6 °F 18.2 °F 19.4 °F 74% 30.26 in 10.0 mi West 8.1 mph - 0.00 in   Clear
9:50 AM 26.6 °F 19.1 °F 19.4 °F 74% 30.26 in 10.0 mi West 6.9 mph - 0.00 in   Clear
10:10 AM 28.4 °F 19.7 °F 19.4 °F 69% 30.27 in 10.0 mi West 9.2 mph - 0.00 in   Clear
10:30 AM 28.4 °F 19.7 °F 19.4 °F 69% 30.27 in 10.0 mi West 9.2 mph - 0.00 in   Clear
10:50 AM 30.2 °F 23.4 °F 19.4 °F 64% 30.27 in 10.0 mi West 6.9 mph - 0.00 in   Clear
11:10 AM 30.2 °F 21.3 °F 19.4 °F 64% 30.27 in 10.0 mi West 10.4 mph - 0.00 in   Clear
11:30 AM 30.2 °F 21.9 °F 21.2 °F 69% 30.27 in 10.0 mi West 9.2 mph - 0.00 in   Clear
11:50 AM 32.0 °F 24.2 °F 21.2 °F 64% 30.26 in 10.0 mi West 9.2 mph - 0.00 in   Clear
12:10 PM 32.0 °F 23.6 °F 23.0 °F 69% 30.26 in 10.0 mi WSW 10.4 mph - 0.00 in   Clear
12:30 PM 32.0 °F 23.0 °F 21.2 °F 64% 30.25 in 10.0 mi West 11.5 mph 16.1 mph 0.00 in   Clear
12:50 PM 32.0 °F 23.0 °F 21.2 °F 64% 30.24 in 10.0 mi WSW 11.5 mph 16.1 mph 0.00 in   Clear
1:10 PM 32.0 °F 24.2 °F 23.0 °F 69% 30.24 in 10.0 mi WSW 9.2 mph - 0.00 in   Clear
1:30 PM 33.8 °F 25.3 °F 23.0 °F 65% 30.24 in 10.0 mi SW 11.5 mph 16.1 mph 0.00 in   Clear
1:50 PM 33.8 °F 25.3 °F 23.0 °F 65% 30.23 in 10.0 mi SW 11.5 mph - 0.00 in   Clear
2:10 PM 33.8 °F 27.0 °F 21.2 °F 60% 30.22 in 10.0 mi West 8.1 mph - 0.00 in   Clear
2:30 PM 35.6 °F 28.6 °F 23.0 °F 60% 30.21 in 10.0 mi West 9.2 mph - 0.00 in   Clear
2:50 PM 35.6 °F 29.9 °F 23.0 °F 60% 30.20 in 10.0 mi West 6.9 mph 16.1 mph 0.00 in   Clear
3:10 PM 35.6 °F 26.6 °F 21.2 °F 56% 30.19 in 10.0 mi West 13.8 mph - 0.00 in   Clear
3:30 PM 35.6 °F 29.2 °F 23.0 °F 60% 30.18 in 10.0 mi West 8.1 mph 16.1 mph 0.00 in   Clear
3:50 PM 37.4 °F 30.8 °F 23.0 °F 56% 30.18 in 10.0 mi West 9.2 mph 16.1 mph 0.00 in   Clear
4:10 PM 37.4 °F 32.1 °F 23.0 °F 56% 30.17 in 10.0 mi WSW 6.9 mph - 0.00 in   Clear
4:30 PM 37.4 °F 30.8 °F 23.0 °F 56% 30.17 in 10.0 mi West 9.2 mph - 0.00 in   Clear
4:50 PM 37.4 °F 30.8 °F 23.0 °F 56% 30.17 in 10.0 mi West 9.2 mph 16.1 mph 0.00 in   Clear
5:10 PM 37.4 °F 29.3 °F 23.0 °F 56% 30.16 in 10.0 mi West 12.7 mph - 0.00 in   Clear
5:30 PM 35.6 °F 29.9 °F 23.0 °F 60% 30.16 in 10.0 mi West 6.9 mph - 0.00 in   Clear
5:50 PM 37.4 °F 31.4 °F 23.0 °F 56% 30.16 in 10.0 mi West 8.1 mph - 0.00 in   Clear
6:10 PM 37.4 °F 30.3 °F 23.0 °F 56% 30.15 in 10.0 mi WSW 10.4 mph - 0.00 in   Clear
6:30 PM 37.4 °F 31.4 °F 23.0 °F 56% 30.15 in 10.0 mi West 8.1 mph - 0.00 in   Clear
6:50 PM 35.6 °F 28.0 °F 23.0 °F 60% 30.15 in 10.0 mi WSW 10.4 mph - 0.00 in   Clear
7:10 PM 35.6 °F 29.9 °F 23.0 °F 60% 30.14 in 10.0 mi West 6.9 mph - 0.00 in   Clear
7:30 PM 33.8 °F 27.7 °F 23.0 °F 65% 30.14 in 10.0 mi West 6.9 mph - 0.00 in   Clear
7:50 PM 33.8 °F 29.6 °F 24.8 °F 70% 30.15 in 10.0 mi West 4.6 mph - 0.00 in   Clear
8:10 PM 33.8 °F 30.8 °F 23.0 °F 65% 30.14 in 10.0 mi WSW 3.5 mph - 0.00 in   Clear
8:30 PM 32.0 °F 27.5 °F 26.6 °F 80% 30.14 in 10.0 mi SW 4.6 mph - 0.00 in   Clear
8:50 PM 32.0 °F 25.6 °F 26.6 °F 80% 30.14 in 10.0 mi SW 6.9 mph - 0.00 in   Clear
9:10 PM 33.8 °F 27.7 °F 23.0 °F 65% 30.15 in 10.0 mi WSW 6.9 mph - 0.00 in   Clear
9:30 PM 32.0 °F 25.6 °F 23.0 °F 69% 30.15 in 10.0 mi WSW 6.9 mph - 0.00 in   Clear
9:50 PM 32.0 °F 28.7 °F 23.0 °F 69% 30.14 in 10.0 mi SW 3.5 mph - 0.00 in   Clear
10:10 PM 32.0 °F - 24.8 °F 75% 30.13 in 10.0 mi Calm Calm - 0.00 in   Clear
10:30 PM 32.0 °F 27.5 °F 24.8 °F 75% 30.12 in 10.0 mi South 4.6 mph - 0.00 in   Clear
10:50 PM 32.0 °F 26.4 °F 24.8 °F 75% 30.11 in 10.0 mi SSW 5.8 mph - 0.00 in   Clear
11:10 PM 32.0 °F 27.5 °F 24.8 °F 75% 30.10 in 10.0 mi SSW 4.6 mph - 0.00 in   Clear
11:30 PM 32.0 °F 26.4 °F 24.8 °F 75% 30.10 in 10.0 mi South 5.8 mph - 0.00 in   Clear
11:50 PM 32.0 °F - 26.6 °F 80% 30.10 in 10.0 mi Calm Calm - 0.00 in   Clear